Weather History for Abilene Dyess, TX

Change the Weather History Date:

Saturday, May 18, 2013

  Actual Average Record
Temperature  
Mean Temperature 87 °F -  
Max Temperature 99 °F 85 °F 100 °F (1998)
Min Temperature 75 °F 63 °F 55 °F (1999)
Cooling Degree Days 22    
Growing Degree Days 37 (Base 50)    
Moisture  
Dew Point 66 °F    
Average Humidity 52    
Maximum Humidity 79    
Minimum Humidity 30    
Precipitation  
Precipitation 0.00 in - - ()
Sea Level Pressure  
Sea Level Pressure 29.62 in    
Wind  
Wind Speed 20 mph (South)    
Max Wind Speed 28 mph    
Max Gust Speed 38 mph    
Visibility 10 miles    
Events Thunderstorm    
Averages and records for this station are not official NWS values.
T = Trace of Precipitation, MM = Missing Value Source: NWS Daily Summary

Daily Weather History Graph

Daily Weather History Graph

Search for Another Location

Airport:

Trip Planner

Search our weather history database for the weather conditions in past years. The results will help you decide how hot, cold, wet, or windy it might be!

Date:

Astronomy

May. 18, 2013 Rise Set
Actual Time 6:39 AM CDT 8:32 PM CDT
Civil Twilight 6:11 AM CDT 9:00 PM CDT
Nautical Twilight 5:38 AM CDT 9:33 PM CDT
Astronomical Twilight 5:03 AM CDT 10:08 PM CDT
Moon 2:00 PM CDT (5/18) 2:08 AM CDT (5/18)
Length of Visible Light 14h 48m
Length of Day
13h 53m
First Quarter, 55% of the Moon is Illuminated
May 18
First Quarter
May 24
Full
May 31
Last Quarter
Jun 8
New
Jun 16
First Quarter

Hourly Weather History & Observations

Time (CDT) Temp. Heat Index Dew Point Humidity Pressure Visibility Wind Dir Wind Speed Gust Speed Precip Events Conditions
12:58 AM 85.3 °F 87.4 °F 65.7 °F 52% 29.63 in 10.0 mi South 20.7 mph 27.6 mph N/A   Clear
1:58 AM 83.7 °F 85.3 °F 65.1 °F 53% 29.62 in 10.0 mi South 20.7 mph 27.6 mph N/A   Clear
2:58 AM 81.3 °F 83.2 °F 65.3 °F 58% 29.63 in 10.0 mi South 18.4 mph - N/A   Clear
3:58 AM 78.8 °F - 65.8 °F 64% 29.63 in 10.0 mi South 15.0 mph - N/A   Clear
4:58 AM 76.6 °F - 66.6 °F 71% 29.64 in 10.0 mi SSE 12.7 mph - N/A   Clear
5:58 AM 75.2 °F - 67.8 °F 78% 29.65 in 10.0 mi SSE 10.4 mph - N/A   Clear
6:58 AM 75.6 °F - 68.7 °F 79% 29.65 in 10.0 mi South 15.0 mph - N/A   Clear
7:58 AM 76.6 °F - 68.4 °F 75% 29.66 in 10.0 mi South 17.3 mph - N/A   Clear
8:58 AM 81.0 °F 83.0 °F 66.0 °F 60% 29.67 in 10.0 mi South 18.4 mph 26.5 mph N/A   Clear
9:58 AM 85.3 °F 86.6 °F 64.0 °F 49% 29.67 in 10.0 mi South 20.7 mph 28.8 mph N/A   Partly Cloudy
10:58 AM 85.6 °F 87.9 °F 66.4 °F 52% 29.68 in 10.0 mi South 27.6 mph 36.8 mph N/A   Partly Cloudy
11:58 AM 90.0 °F 93.6 °F 67.8 °F 48% 29.65 in 10.0 mi South 24.2 mph 36.8 mph N/A   Partly Cloudy
12:58 PM 91.2 °F 95.0 °F 67.6 °F 46% 29.65 in 10.0 mi South 20.7 mph 29.9 mph N/A   Overcast
1:58 PM 94.6 °F 98.3 °F 66.9 °F 40% 29.62 in 10.0 mi South 23.0 mph 31.1 mph N/A   Overcast
2:58 PM 93.7 °F 97.7 °F 67.5 °F 42% 29.61 in 10.0 mi SSE 20.7 mph 26.5 mph N/A   Overcast
3:58 PM 96.4 °F 100.6 °F 67.1 °F 38% 29.58 in 10.0 mi SSE 19.6 mph 28.8 mph N/A Thunderstorm Mostly Cloudy
4:25 PM 96.8 °F 100.7 °F 66.2 °F 37% 29.73 in 10.0 mi SSE 17.3 mph 31.1 mph N/A   Overcast
4:58 PM 99.0 °F 100.5 °F 62.1 °F 30% 29.55 in 10.0 mi South 26.5 mph 33.4 mph N/A   Mostly Cloudy
5:58 PM 98.1 °F 99.6 °F 62.8 °F 31% 29.54 in 10.0 mi South 24.2 mph 32.2 mph N/A   Clear
6:58 PM 95.4 °F 96.2 °F 62.1 °F 33% 29.54 in 10.0 mi South 24.2 mph - N/A   Clear
7:58 PM 91.2 °F 94.1 °F 66.2 °F 44% 29.53 in 10.0 mi SSE 27.6 mph 38.0 mph N/A   Clear
8:58 PM 87.8 °F 90.0 °F 65.7 °F 48% 29.54 in 10.0 mi SSE 26.5 mph 34.5 mph N/A   Clear
9:58 PM 85.5 °F 87.1 °F 64.8 °F 50% 29.56 in 10.0 mi SSE 24.2 mph 32.2 mph N/A   Clear
10:58 PM 83.5 °F 85.3 °F 65.1 °F 54% 29.57 in 10.0 mi South 21.9 mph 26.5 mph N/A   Clear
11:58 PM 82.4 °F 84.2 °F 65.5 °F 56% 29.58 in 10.0 mi South 25.3 mph 33.4 mph N/A   Clear